Change the Weather History Date:

Saturday, February 15, 2014

  Actual Average Record
Temperature  
Mean Temperature 10 °F -  
Max Temperature 21 °F 25 °F 60 °F (1921)
Min Temperature 0 °F 7 °F -24 °F (1939)
Degree Days  
Heating Degree Days 54    
Moisture  
Dew Point 10 °F    
Average Humidity 83    
Maximum Humidity 86    
Minimum Humidity 73    
Precipitation  
Precipitation 0.00 in - - ()
Sea Level Pressure  
Sea Level Pressure 29.90 in    
Wind  
Wind Speed 7 mph (SSE)    
Max Wind Speed 17 mph    
Max Gust Speed 24 mph    
Visibility 8 miles    
Events Snow    
Averages and records for this station are not official NWS values.
T = Trace of Precipitation, MM = Missing Value Source: NWS Daily Summary

Daily Weather History Graph

Daily Weather History Graph

Search for Another Location

Airport or City:

Trip Planner

Search our weather history database for the weather conditions in past years. The results will help you decide how hot, cold, wet, or windy it might be!

Date:

Astronomy

Feb. 15, 2014 Rise Set
Actual Time 7:13 AM CST 5:43 PM CST
Civil Twilight 6:43 AM CST 6:13 PM CST
Nautical Twilight 6:09 AM CST 6:47 PM CST
Astronomical Twilight 5:36 AM CST 7:20 PM CST
Moon 6:48 PM CST (2/15) 7:09 AM CST (2/15)
Length of Visible Light 11h 29m
Length of Day
10h 30m
Waxing Gibbous, 99% of the Moon is Illuminated
Feb 15
Waxing Gibbous
Feb 22
Last Quarter
Mar 1
New
Mar 8
First Quarter
Mar 16
Full

Hourly Weather History & Observations

Time (CST) Temp. Windchill Dew Point Humidity Pressure Visibility Wind Dir Wind Speed Gust Speed Precip Events Conditions
12:15 AM -0.4 °F - -4.0 °F 85% 30.03 in 2.5 mi Calm Calm - N/A Snow Light Snow
12:36 AM -0.4 °F - -5.8 °F 78% 30.03 in 7.0 mi Calm Calm - N/A   Clear
12:56 AM -0.4 °F - -4.0 °F 85% 30.02 in 7.0 mi Calm Calm - N/A   Clear
1:16 AM -0.4 °F -10.4 °F -5.8 °F 78% 30.01 in 10.0 mi ESE 4.6 mph - N/A   Clear
1:35 AM -0.4 °F - -5.8 °F 78% 30.01 in 10.0 mi Calm Calm - N/A   Clear
1:56 AM -0.4 °F - -5.8 °F 78% 30.00 in 10.0 mi Calm Calm - N/A   Clear
2:16 AM -0.4 °F - -5.8 °F 78% 29.98 in 10.0 mi Calm Calm - N/A   Clear
2:36 AM -0.4 °F -8.3 °F -5.8 °F 78% 29.98 in 10.0 mi SSE 3.5 mph - N/A   Clear
2:55 AM -0.4 °F - -5.8 °F 78% 29.98 in 10.0 mi Calm Calm - N/A   Clear
3:16 AM -0.4 °F -10.4 °F -5.8 °F 78% 29.98 in 10.0 mi SSW 4.6 mph - N/A   Clear
3:36 AM -0.4 °F -10.4 °F -5.8 °F 78% 29.98 in 10.0 mi SSW 4.6 mph - N/A   Clear
3:56 AM -0.4 °F -8.3 °F -5.8 °F 78% 29.97 in 10.0 mi SSE 3.5 mph - N/A   Clear
4:15 AM 1.4 °F -6.2 °F -4.0 °F 78% 29.96 in 10.0 mi South 3.5 mph - N/A   Clear
4:36 AM 1.4 °F -9.9 °F -2.2 °F 85% 29.96 in 10.0 mi SSE 5.8 mph - N/A   Clear
4:56 AM 3.2 °F -6.2 °F -0.4 °F 85% 29.94 in 10.0 mi SE 4.6 mph - N/A   Clear
5:16 AM 5.0 °F -5.6 °F 1.4 °F 85% 29.93 in 10.0 mi SE 5.8 mph - N/A   Clear
5:36 AM 5.0 °F -8.1 °F 1.4 °F 85% 29.93 in 10.0 mi SE 8.1 mph - N/A   Clear
5:56 AM 6.8 °F -3.5 °F 3.2 °F 85% 29.91 in 10.0 mi ESE 5.8 mph - N/A   Clear
6:16 AM 6.8 °F -2.0 °F 3.2 °F 85% 29.91 in 10.0 mi SE 4.6 mph - N/A   Clear
6:36 AM 6.8 °F -6.9 °F 3.2 °F 85% 29.90 in 10.0 mi SE 9.2 mph - N/A   Clear
6:56 AM 6.8 °F -5.9 °F 3.2 °F 85% 29.89 in 10.0 mi SE 8.1 mph - N/A   Clear
7:16 AM 8.6 °F -5.5 °F 3.2 °F 79% 29.89 in 10.0 mi SE 10.4 mph - N/A   Clear
7:36 AM 8.6 °F -3.7 °F 5.0 °F 85% 29.89 in 10.0 mi SSE 8.1 mph - N/A   Scattered Clouds
7:56 AM 12.2 °F -1.0 °F 8.6 °F 85% 29.88 in 10.0 mi SSE 10.4 mph - N/A   Scattered Clouds
8:16 AM 12.2 °F -3.1 °F 8.6 °F 85% 29.89 in 10.0 mi South 13.8 mph 18.4 mph N/A   Scattered Clouds
8:36 AM 14.0 °F -1.4 °F 10.4 °F 86% 29.88 in 10.0 mi SSE 15.0 mph - N/A   Overcast
8:56 AM 14.0 °F -2.0 °F 8.6 °F 79% 29.87 in 10.0 mi SSE 16.1 mph - N/A   Overcast
9:15 AM 14.0 °F -0.2 °F 8.6 °F 79% 29.85 in 10.0 mi SE 12.7 mph - N/A   Overcast
9:36 AM 14.0 °F 0.5 °F 8.6 °F 79% 29.85 in 10.0 mi SE 11.5 mph - N/A   Overcast
9:56 AM 17.6 °F 3.2 °F 10.4 °F 73% 29.86 in 10.0 mi SSE 15.0 mph - N/A   Overcast
10:16 AM 17.6 °F 3.2 °F 10.4 °F 73% 29.86 in 0.2 mi SSE 15.0 mph 20.7 mph N/A Snow Snow
10:36 AM 17.6 °F 3.2 °F 12.2 °F 79% 29.84 in 0.2 mi SSE 15.0 mph - N/A Snow Snow
10:56 AM 19.4 °F 5.5 °F 14.0 °F 80% 29.83 in 0.5 mi SSE 15.0 mph - N/A Snow Light Snow
11:16 AM 19.4 °F 6.0 °F 14.0 °F 80% 29.82 in 0.5 mi SSE 13.8 mph 21.9 mph N/A Snow Light Snow
11:36 AM 19.4 °F 5.5 °F 14.0 °F 80% 29.81 in 0.8 mi SSE 15.0 mph 20.7 mph N/A Snow Light Snow
11:56 AM 19.4 °F 5.0 °F 14.0 °F 80% 29.81 in 0.2 mi SSE 16.1 mph 24.2 mph N/A Snow Heavy Snow
12:16 PM 19.4 °F 5.5 °F 14.0 °F 80% 29.79 in 0.5 mi SSE 15.0 mph 19.6 mph N/A Snow Light Snow
12:36 PM 19.4 °F 7.9 °F 14.0 °F 80% 29.78 in 1.8 mi SSE 10.4 mph 23.0 mph N/A Snow Light Snow
12:56 PM 19.4 °F 4.5 °F 15.8 °F 86% 29.78 in 0.5 mi SSE 17.3 mph - N/A Snow Light Snow
1:16 PM 19.4 °F 5.0 °F 14.0 °F 80% 29.78 in 4.0 mi SSE 16.1 mph - N/A Snow Light Snow
1:36 PM 21.2 °F 7.8 °F 15.8 °F 80% 29.76 in 7.0 mi SSE 15.0 mph 21.9 mph N/A   Overcast
1:56 PM 21.2 °F 7.8 °F 17.6 °F 86% 29.76 in 4.0 mi SSE 15.0 mph 18.4 mph N/A Snow Light Snow
2:16 PM 21.2 °F 8.9 °F 17.6 °F 86% 29.76 in 0.8 mi SSE 12.7 mph 16.1 mph N/A Snow Light Snow
2:35 PM 21.2 °F 10.9 °F 17.6 °F 86% 29.76 in 0.8 mi SSE 9.2 mph - N/A Snow Light Snow
2:56 PM 21.2 °F 11.7 °F 17.6 °F 86% 29.77 in 3.0 mi SSE 8.1 mph 11.5 mph N/A Snow Light Snow
3:16 PM 21.2 °F 10.9 °F 17.6 °F 86% 29.77 in 7.0 mi SE 9.2 mph - N/A   Overcast
3:36 PM 21.2 °F 10.9 °F 17.6 °F 86% 29.78 in 10.0 mi SSE 9.2 mph - N/A   Overcast
3:56 PM 21.2 °F 13.6 °F 17.6 °F 86% 29.79 in 10.0 mi SSE 5.8 mph - N/A   Overcast
4:16 PM 21.2 °F 13.6 °F 17.6 °F 86% 29.79 in 10.0 mi SE 5.8 mph - N/A   Overcast
4:36 PM 21.2 °F 13.6 °F 17.6 °F 86% 29.80 in 5.0 mi SE 5.8 mph - N/A Snow Light Snow
4:56 PM 21.2 °F 12.6 °F 17.6 °F 86% 29.81 in 4.0 mi SE 6.9 mph - N/A Snow Light Snow
5:16 PM 21.2 °F 13.6 °F 17.6 °F 86% 29.83 in 10.0 mi East 5.8 mph - N/A   Overcast
5:36 PM 21.2 °F 16.4 °F 17.6 °F 86% 29.84 in 10.0 mi ESE 3.5 mph - N/A   Overcast
5:56 PM 21.2 °F - 17.6 °F 86% 29.86 in 10.0 mi Calm Calm - N/A   Overcast
6:16 PM 21.2 °F 14.9 °F 17.6 °F 86% 29.88 in 10.0 mi NNW 4.6 mph - N/A   Overcast
6:36 PM 21.2 °F - 17.6 °F 86% 29.89 in 10.0 mi Calm Calm - N/A   Overcast
6:56 PM 21.2 °F 12.6 °F 17.6 °F 86% 29.91 in 10.0 mi NNW 6.9 mph - N/A   Overcast
7:16 PM 21.2 °F 13.6 °F 17.6 °F 86% 29.92 in 10.0 mi NNW 5.8 mph - N/A   Overcast
7:36 PM 21.2 °F 10.1 °F 17.6 °F 86% 29.93 in 10.0 mi NNW 10.4 mph - N/A   Overcast
7:56 PM 21.2 °F 8.9 °F 17.6 °F 86% 29.95 in 10.0 mi NW 12.7 mph - N/A   Overcast
8:16 PM 21.2 °F 8.9 °F 17.6 °F 86% 29.96 in 10.0 mi NNW 12.7 mph - N/A   Overcast
8:36 PM 21.2 °F 8.9 °F 17.6 °F 86% 29.97 in 10.0 mi NW 12.7 mph - N/A   Overcast
8:56 PM 21.2 °F 8.9 °F 17.6 °F 86% 29.98 in 10.0 mi NW 12.7 mph - N/A   Overcast
9:16 PM 21.2 °F 8.3 °F 17.6 °F 86% 29.98 in 7.0 mi NW 13.8 mph - N/A   Overcast
9:36 PM 21.2 °F 8.3 °F 17.6 °F 86% 29.98 in 7.0 mi NW 13.8 mph - N/A   Overcast
9:56 PM 21.2 °F 8.3 °F 17.6 °F 86% 30.00 in 10.0 mi NW 13.8 mph - N/A   Overcast
10:15 PM 21.2 °F 9.5 °F 17.6 °F 86% 30.01 in 10.0 mi NW 11.5 mph - N/A   Overcast
10:36 PM 21.2 °F 7.8 °F 17.6 °F 86% 30.03 in 10.0 mi WNW 15.0 mph - N/A   Overcast
10:56 PM 21.2 °F 8.3 °F 17.6 °F 86% 30.03 in 10.0 mi WNW 13.8 mph - N/A   Overcast
11:16 PM 21.2 °F 8.3 °F 17.6 °F 86% 30.04 in 10.0 mi NW 13.8 mph - N/A   Overcast
11:36 PM 21.2 °F 8.9 °F 17.6 °F 86% 30.03 in 10.0 mi NW 12.7 mph - N/A   Overcast
11:56 PM 21.2 °F 10.1 °F 17.6 °F 86% 30.02 in 10.0 mi NW 10.4 mph - N/A   Overcast